Year,Month,Day,Hour,Minute,Value (Times are PST for temperature in C)
2006,04,22,00,00,3.80
2006,04,22,00,01,3.80
2006,04,22,00,02,3.80
2006,04,22,00,03,3.80
2006,04,22,00,04,3.80
2006,04,22,00,05,3.80
2006,04,22,00,06,3.70
2006,04,22,00,07,3.70
2006,04,22,00,08,3.70
2006,04,22,00,09,3.70
2006,04,22,00,10,3.70
2006,04,22,00,11,3.70
2006,04,22,00,12,3.70
2006,04,22,00,13,3.70
2006,04,22,00,14,3.70
2006,04,22,00,15,3.70
2006,04,22,00,16,3.70
2006,04,22,00,17,3.70
2006,04,22,00,18,3.60
2006,04,22,00,19,3.60
2006,04,22,00,20,3.60
2006,04,22,00,21,3.60
2006,04,22,00,22,3.60
2006,04,22,00,23,3.50
2006,04,22,00,24,3.50
2006,04,22,00,25,3.50
2006,04,22,00,26,3.40
2006,04,22,00,27,3.40
2006,04,22,00,28,3.40
2006,04,22,00,29,3.40
2006,04,22,00,30,3.40
2006,04,22,00,31,3.40
2006,04,22,00,32,3.40
2006,04,22,00,33,3.40
2006,04,22,00,34,3.40
2006,04,22,00,35,3.40
2006,04,22,00,36,3.30
2006,04,22,00,37,3.30
2006,04,22,00,38,3.30
2006,04,22,00,39,3.30
2006,04,22,00,40,3.30
2006,04,22,00,41,3.30
2006,04,22,00,42,3.40
2006,04,22,00,43,3.40
2006,04,22,00,44,3.40
2006,04,22,00,45,3.40
2006,04,22,00,46,3.30
2006,04,22,00,47,3.30
2006,04,22,00,48,3.30
2006,04,22,00,49,3.30
2006,04,22,00,50,3.30
2006,04,22,00,51,3.30
2006,04,22,00,52,3.30
2006,04,22,00,53,3.30
2006,04,22,00,54,3.30
2006,04,22,00,55,3.30
2006,04,22,00,56,3.30
2006,04,22,00,57,3.30
2006,04,22,00,58,3.30
2006,04,22,00,59,3.20
2006,04,22,01,00,3.20
2006,04,22,01,01,3.10
2006,04,22,01,02,3.10
2006,04,22,01,03,3.10
2006,04,22,01,04,3.10
2006,04,22,01,05,3.10
2006,04,22,01,06,3.10
2006,04,22,01,07,3.10
2006,04,22,01,08,3.10
2006,04,22,01,09,3.10
2006,04,22,01,10,3.10
2006,04,22,01,11,3.10
2006,04,22,01,12,3.10
2006,04,22,01,13,3.10
2006,04,22,01,14,3.20
2006,04,22,01,15,3.20
2006,04,22,01,16,3.20
2006,04,22,01,17,3.20
2006,04,22,01,18,3.20
2006,04,22,01,19,3.20
2006,04,22,01,20,3.20
2006,04,22,01,21,3.10
2006,04,22,01,22,3.10
2006,04,22,01,23,3.10
2006,04,22,01,24,3.10
2006,04,22,01,25,3.10
2006,04,22,01,26,3.10
2006,04,22,01,27,3.10
2006,04,22,01,28,3.10
2006,04,22,01,29,3.10
2006,04,22,01,30,3.10
2006,04,22,01,31,3.10
2006,04,22,01,32,3.10
2006,04,22,01,33,3.10
2006,04,22,01,34,3.10
2006,04,22,01,35,3.10
2006,04,22,01,36,3.10
2006,04,22,01,37,3.10
2006,04,22,01,38,3.10
2006,04,22,01,39,3.10
2006,04,22,01,40,3.10
2006,04,22,01,41,3.10
2006,04,22,01,42,3.10
2006,04,22,01,43,3.10
2006,04,22,01,44,3.10
2006,04,22,01,45,3.00
2006,04,22,01,46,3.00
2006,04,22,01,47,3.00
2006,04,22,01,48,3.00
2006,04,22,01,49,2.90
2006,04,22,01,50,2.90
2006,04,22,01,51,2.90
2006,04,22,01,52,2.90
2006,04,22,01,53,2.80
2006,04,22,01,54,2.80
2006,04,22,01,55,2.80
2006,04,22,01,56,2.80
2006,04,22,01,57,2.80
2006,04,22,01,58,2.80
2006,04,22,01,59,2.80
2006,04,22,02,00,2.80
2006,04,22,02,01,2.80
2006,04,22,02,02,2.80
2006,04,22,02,03,2.80
2006,04,22,02,04,2.80
2006,04,22,02,05,2.80
2006,04,22,02,06,2.70
2006,04,22,02,07,2.70
2006,04,22,02,08,2.70
2006,04,22,02,09,2.70
2006,04,22,02,10,2.70
2006,04,22,02,11,2.70
2006,04,22,02,12,2.70
2006,04,22,02,13,2.70
2006,04,22,02,14,2.70
2006,04,22,02,15,2.60
2006,04,22,02,16,2.60
2006,04,22,02,17,2.60
2006,04,22,02,18,2.60
2006,04,22,02,19,2.60
2006,04,22,02,20,2.60
2006,04,22,02,21,2.60
2006,04,22,02,22,2.60
2006,04,22,02,23,2.60
2006,04,22,02,24,2.60
2006,04,22,02,25,2.60
2006,04,22,02,26,2.60
2006,04,22,02,27,2.60
2006,04,22,02,28,2.60
2006,04,22,02,29,2.60
2006,04,22,02,30,2.60
2006,04,22,02,31,2.60
2006,04,22,02,32,2.70
2006,04,22,02,33,2.70
2006,04,22,02,34,2.70
2006,04,22,02,35,2.70
2006,04,22,02,36,2.70
2006,04,22,02,37,2.70
2006,04,22,02,38,2.70
2006,04,22,02,39,2.70
2006,04,22,02,40,2.70
2006,04,22,02,41,2.70
2006,04,22,02,42,2.70
2006,04,22,02,43,2.70
2006,04,22,02,44,2.60
2006,04,22,02,45,2.60
2006,04,22,02,46,2.60
2006,04,22,02,47,2.60
2006,04,22,02,48,2.60
2006,04,22,02,49,2.50
2006,04,22,02,50,2.40
2006,04,22,02,51,2.40
2006,04,22,02,52,2.40
2006,04,22,02,53,2.30
2006,04,22,02,54,2.30
2006,04,22,02,55,2.30
2006,04,22,02,56,2.30
2006,04,22,02,57,2.30
2006,04,22,02,58,2.40
2006,04,22,02,59,2.40
2006,04,22,03,00,2.40
2006,04,22,03,01,2.40
2006,04,22,03,02,2.40
2006,04,22,03,03,2.40
2006,04,22,03,04,2.40
2006,04,22,03,05,2.40
2006,04,22,03,06,2.40
2006,04,22,03,07,2.40
2006,04,22,03,08,2.40
2006,04,22,03,09,2.40
2006,04,22,03,10,2.40
2006,04,22,03,11,2.40
2006,04,22,03,12,2.40
2006,04,22,03,13,2.30
2006,04,22,03,14,2.30
2006,04,22,03,15,2.30
2006,04,22,03,16,2.30
2006,04,22,03,17,2.30
2006,04,22,03,18,2.30
2006,04,22,03,19,2.30
2006,04,22,03,20,2.30
2006,04,22,03,21,2.30
2006,04,22,03,22,2.30
2006,04,22,03,23,2.30
2006,04,22,03,24,2.30
2006,04,22,03,25,2.30
2006,04,22,03,26,2.30
2006,04,22,03,27,2.30
2006,04,22,03,28,2.30
2006,04,22,03,29,2.30
2006,04,22,03,30,2.30
2006,04,22,03,31,2.30
2006,04,22,03,32,2.30
2006,04,22,03,33,2.30
2006,04,22,03,34,2.40
2006,04,22,03,35,2.40
2006,04,22,03,36,2.40
2006,04,22,03,37,2.50
2006,04,22,03,38,2.50
2006,04,22,03,39,2.50
2006,04,22,03,40,2.50
2006,04,22,03,41,2.50
2006,04,22,03,42,2.50
2006,04,22,03,43,2.50
2006,04,22,03,44,2.40
2006,04,22,03,45,2.40
2006,04,22,03,46,2.40
2006,04,22,03,47,2.40
2006,04,22,03,48,2.40
2006,04,22,03,49,2.40
2006,04,22,03,50,2.40
2006,04,22,03,51,2.40
2006,04,22,03,52,2.30
2006,04,22,03,53,2.30
2006,04,22,03,54,2.30
2006,04,22,03,55,2.30
2006,04,22,03,56,2.30
2006,04,22,03,57,2.40
2006,04,22,03,58,2.40
2006,04,22,03,59,2.40
2006,04,22,04,00,2.40
2006,04,22,04,01,2.40
2006,04,22,04,02,2.40
2006,04,22,04,03,2.40
2006,04,22,04,04,2.40
2006,04,22,04,05,2.40
2006,04,22,04,06,2.40
2006,04,22,04,07,2.40
2006,04,22,04,08,2.40
2006,04,22,04,09,2.40
2006,04,22,04,10,2.40
2006,04,22,04,11,2.40
2006,04,22,04,12,2.40
2006,04,22,04,13,2.40
2006,04,22,04,14,2.40
2006,04,22,04,15,2.40
2006,04,22,04,16,2.40
2006,04,22,04,17,2.50
2006,04,22,04,18,2.50
2006,04,22,04,19,2.50
2006,04,22,04,20,2.50
2006,04,22,04,21,2.50
2006,04,22,04,22,2.50
2006,04,22,04,23,2.50
2006,04,22,04,24,2.50
2006,04,22,04,25,2.50
2006,04,22,04,26,2.50
2006,04,22,04,27,2.50
2006,04,22,04,28,2.50
2006,04,22,04,29,2.50
2006,04,22,04,30,2.50
2006,04,22,04,31,2.40
2006,04,22,04,32,2.40
2006,04,22,04,33,2.40
2006,04,22,04,34,2.40
2006,04,22,04,35,2.40
2006,04,22,04,36,2.40
2006,04,22,04,37,2.40
2006,04,22,04,38,2.40
2006,04,22,04,39,2.40
2006,04,22,04,40,2.40
2006,04,22,04,41,2.40
2006,04,22,04,42,2.40
2006,04,22,04,43,2.40
2006,04,22,04,44,2.40
2006,04,22,04,45,2.40
2006,04,22,04,46,2.40
2006,04,22,04,47,2.40
2006,04,22,04,48,2.40
2006,04,22,04,49,2.40
2006,04,22,04,50,2.40
2006,04,22,04,51,2.40
2006,04,22,04,52,2.40
2006,04,22,04,53,2.40
2006,04,22,04,54,2.40
2006,04,22,04,55,2.40
2006,04,22,04,56,2.40
2006,04,22,04,57,2.40
2006,04,22,04,58,2.40
2006,04,22,04,59,2.40
2006,04,22,05,00,2.40
2006,04,22,05,01,2.40
2006,04,22,05,02,2.40
2006,04,22,05,03,2.40
2006,04,22,05,04,2.40
2006,04,22,05,05,2.40
2006,04,22,05,06,2.40
2006,04,22,05,07,2.40
2006,04,22,05,08,2.40
2006,04,22,05,09,2.30
2006,04,22,05,10,2.40
2006,04,22,05,11,2.40
2006,04,22,05,12,2.40
2006,04,22,05,13,2.40
2006,04,22,05,14,2.40
2006,04,22,05,15,2.40
2006,04,22,05,16,2.40
2006,04,22,05,17,2.40
2006,04,22,05,18,2.50
2006,04,22,05,19,2.50
2006,04,22,05,20,2.50
2006,04,22,05,21,2.50
2006,04,22,05,22,2.50
2006,04,22,05,23,2.50
2006,04,22,05,24,2.50
2006,04,22,05,25,2.50
2006,04,22,05,26,2.50
2006,04,22,05,27,2.50
2006,04,22,05,28,2.50
2006,04,22,05,29,2.50
2006,04,22,05,30,2.50
2006,04,22,05,31,2.50
2006,04,22,05,32,2.50
2006,04,22,05,33,2.50
2006,04,22,05,34,2.50
2006,04,22,05,35,2.60
2006,04,22,05,36,2.60
2006,04,22,05,37,2.60
2006,04,22,05,38,2.60
2006,04,22,05,39,2.60
2006,04,22,05,40,2.60
2006,04,22,05,41,2.60
2006,04,22,05,42,2.60
2006,04,22,05,43,2.60
2006,04,22,05,44,2.60
2006,04,22,05,45,2.60
2006,04,22,05,46,2.60
2006,04,22,05,47,2.60
2006,04,22,05,48,2.70
2006,04,22,05,49,2.60
2006,04,22,05,50,2.60
2006,04,22,05,51,2.60
2006,04,22,05,52,2.60
2006,04,22,05,53,2.60
2006,04,22,05,54,2.60
2006,04,22,05,55,2.60
2006,04,22,05,56,2.60
2006,04,22,05,57,2.60
2006,04,22,05,58,2.60
2006,04,22,05,59,2.60
2006,04,22,06,00,2.60
2006,04,22,06,01,2.60
2006,04,22,06,02,2.60
2006,04,22,06,03,2.70
2006,04,22,06,04,2.70
2006,04,22,06,05,2.70
2006,04,22,06,06,2.70
2006,04,22,06,07,2.70
2006,04,22,06,08,2.70
2006,04,22,06,09,2.70
2006,04,22,06,10,2.70
2006,04,22,06,11,2.70
2006,04,22,06,12,2.70
2006,04,22,06,13,2.70
2006,04,22,06,14,2.70
2006,04,22,06,15,2.70
2006,04,22,06,16,2.70
2006,04,22,06,17,2.70
2006,04,22,06,18,2.70
2006,04,22,06,19,2.80
2006,04,22,06,20,2.80
2006,04,22,06,21,2.80
2006,04,22,06,22,2.80
2006,04,22,06,23,2.80
2006,04,22,06,24,2.80
2006,04,22,06,25,2.80
2006,04,22,06,26,2.80
2006,04,22,06,27,2.80
2006,04,22,06,28,2.80
2006,04,22,06,29,2.80
2006,04,22,06,30,2.90
2006,04,22,06,31,2.90
2006,04,22,06,32,2.90
2006,04,22,06,33,2.90
2006,04,22,06,34,3.00
2006,04,22,06,35,3.00
2006,04,22,06,36,3.10
2006,04,22,06,37,3.10
2006,04,22,06,38,3.10
2006,04,22,06,39,3.10
2006,04,22,06,40,3.10
2006,04,22,06,41,3.10
2006,04,22,06,42,3.10
2006,04,22,06,43,3.10
2006,04,22,06,44,3.20
2006,04,22,06,45,3.20
2006,04,22,06,46,3.20
2006,04,22,06,47,3.30
2006,04,22,06,48,3.30
2006,04,22,06,49,3.30
2006,04,22,06,50,3.40
2006,04,22,06,51,3.50
2006,04,22,06,52,3.50
2006,04,22,06,53,3.60
2006,04,22,06,54,3.60
2006,04,22,06,55,3.80
2006,04,22,06,56,3.90
2006,04,22,06,57,4.00
2006,04,22,06,58,4.10
2006,04,22,06,59,4.10
2006,04,22,07,00,4.20
2006,04,22,07,01,4.20
2006,04,22,07,02,4.20
2006,04,22,07,03,4.20
2006,04,22,07,04,4.20
2006,04,22,07,05,4.20
2006,04,22,07,06,4.20
2006,04,22,07,07,4.20
2006,04,22,07,08,4.20
2006,04,22,07,09,4.20
2006,04,22,07,10,4.20
2006,04,22,07,11,4.10
2006,04,22,07,12,4.10
2006,04,22,07,13,4.10
2006,04,22,07,14,4.10
2006,04,22,07,15,4.10
2006,04,22,07,16,4.20
2006,04,22,07,17,4.20
2006,04,22,07,18,4.20
2006,04,22,07,19,4.20
2006,04,22,07,20,4.30
2006,04,22,07,21,4.40
2006,04,22,07,22,4.50
2006,04,22,07,23,4.60
2006,04,22,07,24,4.70
2006,04,22,07,25,4.70
2006,04,22,07,26,4.80
2006,04,22,07,27,4.80
2006,04,22,07,28,4.90
2006,04,22,07,29,4.90
2006,04,22,07,30,5.00
2006,04,22,07,31,5.10
2006,04,22,07,32,5.10
2006,04,22,07,33,5.10
2006,04,22,07,34,5.20
2006,04,22,07,35,5.20
2006,04,22,07,36,5.30
2006,04,22,07,37,5.30
2006,04,22,07,38,5.30
2006,04,22,07,39,5.40
2006,04,22,07,40,5.40
2006,04,22,07,41,5.40
2006,04,22,07,42,5.40
2006,04,22,07,43,5.50
2006,04,22,07,44,5.50
2006,04,22,07,45,5.60
2006,04,22,07,46,5.70
2006,04,22,07,47,5.80
2006,04,22,07,48,5.80
2006,04,22,07,49,5.90
2006,04,22,07,50,6.00
2006,04,22,07,51,6.00
2006,04,22,07,52,6.00
2006,04,22,07,53,6.10
2006,04,22,07,54,6.20
2006,04,22,07,55,6.20
2006,04,22,07,56,6.30
2006,04,22,07,57,6.30
2006,04,22,07,58,6.30
2006,04,22,07,59,6.40
2006,04,22,08,00,6.40
2006,04,22,08,01,6.40
2006,04,22,08,02,6.40
2006,04,22,08,03,6.40
2006,04,22,08,04,6.50
2006,04,22,08,05,6.50
2006,04,22,08,06,6.60
2006,04,22,08,07,6.60
2006,04,22,08,08,6.70
2006,04,22,08,09,6.70
2006,04,22,08,10,6.70
2006,04,22,08,11,6.80
2006,04,22,08,12,6.80
2006,04,22,08,13,6.80
2006,04,22,08,14,6.80
2006,04,22,08,15,6.90
2006,04,22,08,16,6.90
2006,04,22,08,17,6.90
2006,04,22,08,18,6.90
2006,04,22,08,19,6.90
2006,04,22,08,20,7.00
2006,04,22,08,21,6.90
2006,04,22,08,22,6.90
2006,04,22,08,23,7.00
2006,04,22,08,24,7.00
2006,04,22,08,25,7.00
2006,04,22,08,26,7.00
2006,04,22,08,27,7.10
2006,04,22,08,28,7.10
2006,04,22,08,29,7.10
2006,04,22,08,30,7.10
2006,04,22,08,31,7.10
2006,04,22,08,32,7.10
2006,04,22,08,33,7.10
2006,04,22,08,34,7.10
2006,04,22,08,35,7.10
2006,04,22,08,36,7.10
2006,04,22,08,37,7.20
2006,04,22,08,38,7.20
2006,04,22,08,39,7.20
2006,04,22,08,40,7.20
2006,04,22,08,41,7.30
2006,04,22,08,42,7.30
2006,04,22,08,43,7.30
2006,04,22,08,44,7.30
2006,04,22,08,45,7.20
2006,04,22,08,46,7.20
2006,04,22,08,47,7.20
2006,04,22,08,48,7.20
2006,04,22,08,49,7.20
2006,04,22,08,50,7.20
2006,04,22,08,51,7.20
2006,04,22,08,52,7.20
2006,04,22,08,53,7.30
2006,04,22,08,54,7.30
2006,04,22,08,55,7.30
2006,04,22,08,56,7.30
2006,04,22,08,57,7.30
2006,04,22,08,58,7.40
2006,04,22,08,59,7.40
2006,04,22,09,00,7.40
2006,04,22,09,01,7.40
2006,04,22,09,02,7.40
2006,04,22,09,03,7.40
2006,04,22,09,04,7.50
2006,04,22,09,05,7.50
2006,04,22,09,06,7.50
2006,04,22,09,07,7.60
2006,04,22,09,08,7.60
2006,04,22,09,09,7.60
2006,04,22,09,10,7.60
2006,04,22,09,11,7.70
2006,04,22,09,12,7.70
2006,04,22,09,13,7.70
2006,04,22,09,14,7.70
2006,04,22,09,15,7.70
2006,04,22,09,16,7.70
2006,04,22,09,17,7.70
2006,04,22,09,18,7.70
2006,04,22,09,19,7.70
2006,04,22,09,20,7.70
2006,04,22,09,21,7.70
2006,04,22,09,22,7.70
2006,04,22,09,23,7.70
2006,04,22,09,24,7.70
2006,04,22,09,25,7.70
2006,04,22,09,26,7.70
2006,04,22,09,27,7.70
2006,04,22,09,28,7.70
2006,04,22,09,29,7.80
2006,04,22,09,30,7.80
2006,04,22,09,31,7.80
2006,04,22,09,32,7.80
2006,04,22,09,33,7.80
2006,04,22,09,34,7.90
2006,04,22,09,35,7.90
2006,04,22,09,36,7.90
2006,04,22,09,37,8.00
2006,04,22,09,38,8.00
2006,04,22,09,39,8.00
2006,04,22,09,40,8.00
2006,04,22,09,41,8.00
2006,04,22,09,42,8.00
2006,04,22,09,43,8.00
2006,04,22,09,44,8.10
2006,04,22,09,45,8.10
2006,04,22,09,46,8.10
2006,04,22,09,47,8.10
2006,04,22,09,48,8.10
2006,04,22,09,49,8.20
2006,04,22,09,50,8.20
2006,04,22,09,51,8.30
2006,04,22,09,52,8.20
2006,04,22,09,53,8.20
2006,04,22,09,54,8.30
2006,04,22,09,55,8.30
2006,04,22,09,56,8.30
2006,04,22,09,57,8.40
2006,04,22,09,58,8.40
2006,04,22,09,59,8.40
2006,04,22,10,00,8.50
2006,04,22,10,01,8.50
2006,04,22,10,02,8.50
2006,04,22,10,03,8.60
2006,04,22,10,04,8.60
2006,04,22,10,05,8.60
2006,04,22,10,06,8.60
2006,04,22,10,07,8.70
2006,04,22,10,08,8.70
2006,04,22,10,09,8.70
2006,04,22,10,10,8.80
2006,04,22,10,11,8.80
2006,04,22,10,12,8.80
2006,04,22,10,13,8.90
2006,04,22,10,14,8.90
2006,04,22,10,15,8.90
2006,04,22,10,16,8.90
2006,04,22,10,17,9.00
2006,04,22,10,18,9.00
2006,04,22,10,19,9.10
2006,04,22,10,20,9.10
2006,04,22,10,21,9.10
2006,04,22,10,22,9.10
2006,04,22,10,23,9.10
2006,04,22,10,24,9.10
2006,04,22,10,25,9.20
2006,04,22,10,26,9.20
2006,04,22,10,27,9.20
2006,04,22,10,28,9.10
2006,04,22,10,29,9.10
2006,04,22,10,30,9.10
2006,04,22,10,31,9.10
2006,04,22,10,32,9.10
2006,04,22,10,33,9.20
2006,04,22,10,34,9.20
2006,04,22,10,35,9.20
2006,04,22,10,36,9.30
2006,04,22,10,37,9.30
2006,04,22,10,38,9.40
2006,04,22,10,39,9.40
2006,04,22,10,40,9.40
2006,04,22,10,41,9.40
2006,04,22,10,42,9.40
2006,04,22,10,43,9.40
2006,04,22,10,44,9.50
2006,04,22,10,45,9.50
2006,04,22,10,46,9.60
2006,04,22,10,47,9.60
2006,04,22,10,48,9.60
2006,04,22,10,49,9.60
2006,04,22,10,50,9.70
2006,04,22,10,51,9.70
2006,04,22,10,52,9.80
2006,04,22,10,53,9.80
2006,04,22,10,54,9.80
2006,04,22,10,55,9.80
2006,04,22,10,56,9.80
2006,04,22,10,57,9.70
2006,04,22,10,58,9.70
2006,04,22,10,59,9.70
2006,04,22,11,00,9.70
2006,04,22,11,01,9.80
2006,04,22,11,02,9.80
2006,04,22,11,03,9.80
2006,04,22,11,04,9.80
2006,04,22,11,05,9.90
2006,04,22,11,06,9.90
2006,04,22,11,07,9.90
2006,04,22,11,08,9.90
2006,04,22,11,09,10.00
2006,04,22,11,10,10.00
2006,04,22,11,11,10.10
2006,04,22,11,12,10.00
2006,04,22,11,13,10.00
2006,04,22,11,14,10.00
2006,04,22,11,15,10.10
2006,04,22,11,16,10.10
2006,04,22,11,17,10.20
2006,04,22,11,18,10.10
2006,04,22,11,19,10.10
2006,04,22,11,20,10.20
2006,04,22,11,21,10.20
2006,04,22,11,22,10.20
2006,04,22,11,23,10.20
2006,04,22,11,24,10.30
2006,04,22,11,25,10.40
2006,04,22,11,26,10.40
2006,04,22,11,27,10.40
2006,04,22,11,28,10.40
2006,04,22,11,29,10.40
2006,04,22,11,30,10.40
2006,04,22,11,31,10.40
2006,04,22,11,32,10.30
2006,04,22,11,33,10.30
2006,04,22,11,34,10.30
2006,04,22,11,35,10.30
2006,04,22,11,36,10.30
2006,04,22,11,37,10.30
2006,04,22,11,38,10.30
2006,04,22,11,39,10.30
2006,04,22,11,40,10.30
2006,04,22,11,41,10.30
2006,04,22,11,42,10.30
2006,04,22,11,43,10.40
2006,04,22,11,44,10.40
2006,04,22,11,45,10.40
2006,04,22,11,46,10.40
2006,04,22,11,47,10.40
2006,04,22,11,48,10.30
2006,04,22,11,49,10.30
2006,04,22,11,50,10.30
2006,04,22,11,51,10.30
2006,04,22,11,52,10.30
2006,04,22,11,53,10.20
2006,04,22,11,54,10.30
2006,04,22,11,55,10.30
2006,04,22,11,56,10.30
2006,04,22,11,57,10.40
2006,04,22,11,58,10.40
2006,04,22,11,59,10.40
2006,04,22,12,00,10.40
2006,04,22,12,01,10.50
2006,04,22,12,02,10.40
2006,04,22,12,03,10.50
2006,04,22,12,04,10.50
2006,04,22,12,05,10.60
2006,04,22,12,06,10.60
2006,04,22,12,07,10.60
2006,04,22,12,08,10.60
2006,04,22,12,09,10.60
2006,04,22,12,10,10.60
2006,04,22,12,11,10.60
2006,04,22,12,12,10.60
2006,04,22,12,13,10.60
2006,04,22,12,14,10.60
2006,04,22,12,15,10.70
2006,04,22,12,16,10.70
2006,04,22,12,17,10.70
2006,04,22,12,18,10.70
2006,04,22,12,19,10.70
2006,04,22,12,20,10.70
2006,04,22,12,21,10.70
2006,04,22,12,22,10.80
2006,04,22,12,23,10.80
2006,04,22,12,24,10.80
2006,04,22,12,25,10.90
2006,04,22,12,26,10.90
2006,04,22,12,27,11.00
2006,04,22,12,28,11.00
2006,04,22,12,29,11.10
2006,04,22,12,30,11.10
2006,04,22,12,31,11.10
2006,04,22,12,32,11.10
2006,04,22,12,33,11.20
2006,04,22,12,34,11.20
2006,04,22,12,35,11.30
2006,04,22,12,36,11.30
2006,04,22,12,37,11.30
2006,04,22,12,38,11.40
2006,04,22,12,39,11.50
2006,04,22,12,40,11.50
2006,04,22,12,41,11.50
2006,04,22,12,42,11.60
2006,04,22,12,43,11.70
2006,04,22,12,44,11.70
2006,04,22,12,45,11.80
2006,04,22,12,46,11.90
2006,04,22,12,47,11.90
2006,04,22,12,48,11.90
2006,04,22,12,49,12.00
2006,04,22,12,50,12.10
2006,04,22,12,51,12.10
2006,04,22,12,52,12.10
2006,04,22,12,53,12.10
2006,04,22,12,54,12.00
2006,04,22,12,55,11.90
2006,04,22,12,56,11.90
2006,04,22,12,57,11.90
2006,04,22,12,58,11.80
2006,04,22,12,59,11.80
2006,04,22,13,00,11.80
2006,04,22,13,01,11.80
2006,04,22,13,02,11.80
2006,04,22,13,03,11.80
2006,04,22,13,04,11.80
2006,04,22,13,05,11.80
2006,04,22,13,06,11.80
2006,04,22,13,07,11.90
2006,04,22,13,08,12.00
2006,04,22,13,09,12.00
2006,04,22,13,10,12.10
2006,04,22,13,11,12.10
2006,04,22,13,12,12.10
2006,04,22,13,13,12.10
2006,04,22,13,14,12.10
2006,04,22,13,15,12.10
2006,04,22,13,16,12.10
2006,04,22,13,17,12.10
2006,04,22,13,18,12.20
2006,04,22,13,19,12.20
2006,04,22,13,20,12.20
2006,04,22,13,21,12.30
2006,04,22,13,22,12.30
2006,04,22,13,23,12.20
2006,04,22,13,24,12.20
2006,04,22,13,25,12.20
2006,04,22,13,26,12.20
2006,04,22,13,27,12.30
2006,04,22,13,28,12.30
2006,04,22,13,29,12.30
2006,04,22,13,30,12.30
2006,04,22,13,31,12.30
2006,04,22,13,32,12.30
2006,04,22,13,33,12.30
2006,04,22,13,34,12.30
2006,04,22,13,35,12.30
2006,04,22,13,36,12.30
2006,04,22,13,37,12.30
2006,04,22,13,38,12.30
2006,04,22,13,39,12.40
2006,04,22,13,40,12.40
2006,04,22,13,41,12.40
2006,04,22,13,42,12.50
2006,04,22,13,43,12.50
2006,04,22,13,44,12.50
2006,04,22,13,45,12.50
2006,04,22,13,46,12.50
2006,04,22,13,47,12.50
2006,04,22,13,48,12.50
2006,04,22,13,49,12.50
2006,04,22,13,50,12.60
2006,04,22,13,51,12.60
2006,04,22,13,52,12.60
2006,04,22,13,53,12.60
2006,04,22,13,54,12.60
2006,04,22,13,55,12.70
2006,04,22,13,56,12.70
2006,04,22,13,57,12.60
2006,04,22,13,58,12.60
2006,04,22,13,59,12.60
2006,04,22,14,00,12.60
2006,04,22,14,01,12.60
2006,04,22,14,02,12.60
2006,04,22,14,03,12.60
2006,04,22,14,04,12.70
2006,04,22,14,05,12.80
2006,04,22,14,06,12.70
2006,04,22,14,07,12.70
2006,04,22,14,08,12.70
2006,04,22,14,09,12.70
2006,04,22,14,10,12.70
2006,04,22,14,11,12.70
2006,04,22,14,12,12.70
2006,04,22,14,13,12.70
2006,04,22,14,14,12.70
2006,04,22,14,15,12.70
2006,04,22,14,16,12.80
2006,04,22,14,17,12.80
2006,04,22,14,18,12.80
2006,04,22,14,19,12.80
2006,04,22,14,20,12.80
2006,04,22,14,21,12.80
2006,04,22,14,22,12.90
2006,04,22,14,23,12.90
2006,04,22,14,24,12.90
2006,04,22,14,25,12.90
2006,04,22,14,26,12.90
2006,04,22,14,27,12.90
2006,04,22,14,28,13.00
2006,04,22,14,29,13.00
2006,04,22,14,30,13.00
2006,04,22,14,31,13.10
2006,04,22,14,32,13.10
2006,04,22,14,33,13.10
2006,04,22,14,34,13.10
2006,04,22,14,35,13.10
2006,04,22,14,36,13.10
2006,04,22,14,37,13.10
2006,04,22,14,38,13.10
2006,04,22,14,39,13.10
2006,04,22,14,40,13.10
2006,04,22,14,41,13.10
2006,04,22,14,42,13.00
2006,04,22,14,43,13.00
2006,04,22,14,44,13.00
2006,04,22,14,45,13.00
2006,04,22,14,46,13.10
2006,04,22,14,47,13.20
2006,04,22,14,48,13.20
2006,04,22,14,49,13.20
2006,04,22,14,50,13.20
2006,04,22,14,51,13.20
2006,04,22,14,52,13.10
2006,04,22,14,53,13.20
2006,04,22,14,54,13.10
2006,04,22,14,55,13.10
2006,04,22,14,56,13.20
2006,04,22,14,57,13.20
2006,04,22,14,58,13.30
2006,04,22,14,59,13.40
2006,04,22,15,00,13.50
2006,04,22,15,01,13.50
2006,04,22,15,02,13.50
2006,04,22,15,03,13.40
2006,04,22,15,04,13.50
2006,04,22,15,05,13.50
2006,04,22,15,06,13.40
2006,04,22,15,07,13.50
2006,04,22,15,08,13.50
2006,04,22,15,09,13.60
2006,04,22,15,10,13.70
2006,04,22,15,11,13.80
2006,04,22,15,12,13.80
2006,04,22,15,13,13.70
2006,04,22,15,14,13.70
2006,04,22,15,15,13.70
2006,04,22,15,16,13.70
2006,04,22,15,17,13.80
2006,04,22,15,18,13.80
2006,04,22,15,19,13.80
2006,04,22,15,20,13.80
2006,04,22,15,21,13.90
2006,04,22,15,22,14.00
2006,04,22,15,23,14.10
2006,04,22,15,24,14.00
2006,04,22,15,25,13.90
2006,04,22,15,26,13.90
2006,04,22,15,27,13.80
2006,04,22,15,28,13.90
2006,04,22,15,29,13.90
2006,04,22,15,30,13.90
2006,04,22,15,31,13.90
2006,04,22,15,32,13.90
2006,04,22,15,33,13.90
2006,04,22,15,34,13.90
2006,04,22,15,35,13.90
2006,04,22,15,36,13.90
2006,04,22,15,37,13.90
2006,04,22,15,38,13.90
2006,04,22,15,39,13.90
2006,04,22,15,40,13.90
2006,04,22,15,41,14.00
2006,04,22,15,42,13.90
2006,04,22,15,43,13.90
2006,04,22,15,44,13.90
2006,04,22,15,45,13.90
2006,04,22,15,46,13.80
2006,04,22,15,47,13.70
2006,04,22,15,48,13.70
2006,04,22,15,49,13.70
2006,04,22,15,50,13.70
2006,04,22,15,51,13.80
2006,04,22,15,52,13.80
2006,04,22,15,53,13.80
2006,04,22,15,54,13.80
2006,04,22,15,55,13.90
2006,04,22,15,56,13.90
2006,04,22,15,57,13.90
2006,04,22,15,58,13.90
2006,04,22,15,59,13.90
2006,04,22,16,00,14.00
2006,04,22,16,01,13.90
2006,04,22,16,02,13.90
2006,04,22,16,03,13.90
2006,04,22,16,04,13.80
2006,04,22,16,05,13.80
2006,04,22,16,06,13.80
2006,04,22,16,07,13.80
2006,04,22,16,08,13.80
2006,04,22,16,09,13.80
2006,04,22,16,10,13.80
2006,04,22,16,11,13.70
2006,04,22,16,12,13.70
2006,04,22,16,13,13.70
2006,04,22,16,14,13.70
2006,04,22,16,15,13.80
2006,04,22,16,16,13.90
2006,04,22,16,17,13.90
2006,04,22,16,18,13.90
2006,04,22,16,19,13.90
2006,04,22,16,20,14.00
2006,04,22,16,21,14.00
2006,04,22,16,22,14.00
2006,04,22,16,23,13.90
2006,04,22,16,24,13.90
2006,04,22,16,25,13.80
2006,04,22,16,26,13.80
2006,04,22,16,27,13.80
2006,04,22,16,28,13.80
2006,04,22,16,29,13.80
2006,04,22,16,30,13.80
2006,04,22,16,31,13.80
2006,04,22,16,32,13.80
2006,04,22,16,33,13.80
2006,04,22,16,34,13.80
2006,04,22,16,35,13.80
2006,04,22,16,36,13.80
2006,04,22,16,37,13.70
2006,04,22,16,38,13.80
2006,04,22,16,39,13.80
2006,04,22,16,40,13.80
2006,04,22,16,41,13.80
2006,04,22,16,42,13.70
2006,04,22,16,43,13.70
2006,04,22,16,44,13.80
2006,04,22,16,45,13.90
2006,04,22,16,46,13.90
2006,04,22,16,47,13.80
2006,04,22,16,48,13.80
2006,04,22,16,49,13.80
2006,04,22,16,50,13.80
2006,04,22,16,51,13.80
2006,04,22,16,52,13.80
2006,04,22,16,53,13.80
2006,04,22,16,54,13.80
2006,04,22,16,55,13.80
2006,04,22,16,56,13.80
2006,04,22,16,57,13.80
2006,04,22,16,58,13.80
2006,04,22,16,59,13.90
2006,04,22,17,00,13.80
2006,04,22,17,01,13.80
2006,04,22,17,02,13.80
2006,04,22,17,03,13.90
2006,04,22,17,04,13.90
2006,04,22,17,05,13.90
2006,04,22,17,06,13.90
2006,04,22,17,07,13.90
2006,04,22,17,08,13.90
2006,04,22,17,09,13.90
2006,04,22,17,10,13.90
2006,04,22,17,11,13.90
2006,04,22,17,12,13.90
2006,04,22,17,13,14.00
2006,04,22,17,14,14.00
2006,04,22,17,15,14.00
2006,04,22,17,16,14.00
2006,04,22,17,17,14.00
2006,04,22,17,18,14.10
2006,04,22,17,19,14.10
2006,04,22,17,20,14.10
2006,04,22,17,21,14.10
2006,04,22,17,22,14.10
2006,04,22,17,23,14.10
2006,04,22,17,24,14.10
2006,04,22,17,25,14.00
2006,04,22,17,26,14.00
2006,04,22,17,27,14.00
2006,04,22,17,28,14.10
2006,04,22,17,29,14.00
2006,04,22,17,30,14.10
2006,04,22,17,31,14.10
2006,04,22,17,32,14.10
2006,04,22,17,33,14.10
2006,04,22,17,34,14.10
2006,04,22,17,35,14.00
2006,04,22,17,36,14.00
2006,04,22,17,37,14.00
2006,04,22,17,38,14.00
2006,04,22,17,39,14.00
2006,04,22,17,40,14.00
2006,04,22,17,41,14.00
2006,04,22,17,42,14.00
2006,04,22,17,43,14.00
2006,04,22,17,44,14.00
2006,04,22,17,45,14.10
2006,04,22,17,46,14.10
2006,04,22,17,47,14.10
2006,04,22,17,48,14.10